Location: Karcze
(52.0945°N, 22.4786°E)
Time: 19:19:58
(UTC+00:00)

Transit 2A Rocket - Pass Details

Date: 29 July 2021
Orbit: 586 x 917 km, 66.7° (Epoch: 27 September)

Event Time Altitude Azimuth Distance (km) Brightness Sun altitude
Rises 19:29:19 0° 319° (NW) 3,131 10.7 -8.5°
Reaches altitude 10° 19:31:57 10° 332° (NNW) 2,266 8.9 -8.8°
Maximum altitude 19:36:22 27° 29° (NNE) 1,489 6.7 -9.2°
Drops below altitude 10° 19:41:06 10° 87° (E) 2,447 7.3 -9.7°
Enters shadow 19:43:08 - 96° (E) 3,117 7.7 -9.9°
Sets 19:44:02 0° 99° (E) 3,431 - -10.0°
